Other Surface Observations
Issued by NWS Missoula, MT

Home | Current Version | Previous Version | Text Only | Print | Product List | Glossary On
Versions: 1 2 3 4 5 6 7 8 9 10 11 12 13 14 15 16 17 18 19 20 21 22 23 24 25 26 27 28 29 30 31 32 33 34 35 36 37 38 39 40 41 42 43 44 45 46 47 48 49 50
000
SXUS55 KMSO 280823
OSOMSO
MONTANA AWOS SUMMARY
NATIONAL WEATHER SERVICE MISSOULA MT
123 AM MST TUE MAR 28 2017

Montana AWOS Reports

LAUREL      |K6S8 280815Z AUTO 00000KT 5SM HZ 05/M03 A3002 RMK AO1 T00501032
ROUNDUP     |KRPX 280815Z AUTO 19005KT 40SM 06/03 A2993 RMK AO1 T00610028




USA.gov is the U.S. government's official web portal to all federal, state and local government web resources and services.